Watts Bar Lake Weather Center

Moon Phase Calendar



Watts Bar Lake Water Level
Online Cameras

 


      

Current Conditions in Rockwood
2/21/2024 7:44:16 AM

31°F
Feels Like 31
Clear
Humidity
72%
Pressure
30.36"
Wind
1.5 mph (SW)
Dew Point
24°F
UV Index
0/10 (Low)
Visibility
6 mi

Hourly Forecast

Date & Time Wed, Feb 21
7:00 AM
Wed, Feb 21
8:00 AM
Wed, Feb 21
9:00 AM
Wed, Feb 21
10:00 AM
Wed, Feb 21
11:00 AM
Wed, Feb 21
12:00 PM
Wed, Feb 21
1:00 PM
Wed, Feb 21
2:00 PM
Wed, Feb 21
3:00 PM
Wed, Feb 21
4:00 PM
Wed, Feb 21
5:00 PM
Wed, Feb 21
6:00 PM
Wed, Feb 21
7:00 PM
Wed, Feb 21
8:00 PM
Wed, Feb 21
9:00 PM
Wed, Feb 21
10:00 PM
Wed, Feb 21
11:00 PM
Thu, Feb 22
12:00 AM
Thu, Feb 22
1:00 AM
Thu, Feb 22
2:00 AM
Thu, Feb 22
3:00 AM
Thu, Feb 22
4:00 AM
Thu, Feb 22
5:00 AM
Thu, Feb 22
6:00 AM
Thu, Feb 22
7:00 AM
Thu, Feb 22
8:00 AM
Thu, Feb 22
9:00 AM
Thu, Feb 22
10:00 AM
Thu, Feb 22
11:00 AM
Thu, Feb 22
12:00 PM
Thu, Feb 22
1:00 PM
Thu, Feb 22
2:00 PM
Thu, Feb 22
3:00 PM
Thu, Feb 22
4:00 PM
Thu, Feb 22
5:00 PM
Thu, Feb 22
6:00 PM
Thu, Feb 22
7:00 PM
Thu, Feb 22
8:00 PM
Thu, Feb 22
9:00 PM
Thu, Feb 22
10:00 PM
Thu, Feb 22
11:00 PM
Fri, Feb 23
12:00 AM
Fri, Feb 23
1:00 AM
Fri, Feb 23
2:00 AM
Fri, Feb 23
3:00 AM
Fri, Feb 23
4:00 AM
Fri, Feb 23
5:00 AM
Fri, Feb 23
6:00 AM
Condition
Clear

Clear

Clear

Clear

Clear

Clouds

Clouds

Clouds

Clouds

Clouds

Clouds

Clouds

Clouds

Clouds

Clouds

Clouds

Clouds

Clouds

Clouds

Clear

Clouds

Clouds

Clouds

Clouds

Clouds

Clouds

Clouds

Clouds

Clouds

Clouds

Clouds

Clouds

Rain

Rain

Rain

Rain

Rain

Rain

Rain

Rain

Rain

Clouds

Rain

Rain

Clouds

Rain

Rain

Rain
Temperature 32°F31°F34°F38°F44°F50°F58°F59°F59°F59°F57°F53°F50°F48°F47°F46°F45°F44°F44°F43°F44°F44°F44°F44°F45°F46°F49°F52°F54°F55°F57°F58°F58°F57°F56°F57°F55°F55°F54°F54°F54°F54°F54°F55°F53°F52°F53°F53°F
Feels Like 32°F31°F34°F35°F41°F48°F55°F57°F57°F57°F55°F51°F47°F45°F44°F43°F42°F41°F40°F40°F40°F40°F40°F40°F40°F40°F43°F50°F52°F53°F55°F56°F57°F56°F55°F56°F55°F54°F54°F53°F54°F54°F54°F54°F53°F52°F53°F53°F
Cloudiness 0%0%0%0%1%12%25%100%100%100%100%100%100%100%100%99%77%62%53%0%47%65%74%79%82%100%100%100%100%100%100%100%100%100%100%100%100%97%97%97%98%98%98%100%100%100%100%100%
Visibility 6 mi6 mi6 mi6 mi6 mi6 mi6 mi6 mi6 mi6 mi6 mi6 mi6 mi6 mi6 mi6 mi6 mi6 mi6 mi6 mi6 mi6 mi6 mi6 mi6 mi6 mi6 mi6 mi6 mi6 mi6 mi6 mi6 mi6 mi6 mi6 mi6 mi4 mi5 mi6 mi6 mi6 mi6 mi6 mi6 mi6 mi6 mi6 mi
Precipitation 0%0%0%0%0%0%0%0%0%0%0%0%0%0%0%0%0%0%0%0%0%0%0%0%0%0%0%0%0%0%0%14%41%60%64%64%77%100%100%100%100%80%100%96%72%92%96%92%
Humidity 73%72%70%65%59%52%47%46%47%51%57%66%72%74%76%76%79%80%81%81%81%81%80%80%80%78%74%70%67%66%65%65%69%75%80%82%90%94%96%97%97%97%97%96%95%96%95%92%
Dew Point 26°F24°F26°F28°F31°F33°F37°F38°F38°F40°F41°F41°F40°F39°F39°F38°F38°F38°F37°F37°F37°F38°F38°F38°F38°F38°F40°F41°F42°F43°F44°F45°F47°F49°F49°F50°F52°F52°F52°F52°F52°F53°F53°F53°F51°F50°F51°F50°F
Pressure 30.36"30.36"30.36"30.36"30.33"30.3"30.24"30.21"30.18"30.18"30.15"30.15"30.15"30.15"30.15"30.12"30.12"30.12"30.12"30.12"30.09"30.09"30.06"30.06"30.03"30"29.97"29.94"29.91"29.88"29.85"29.8"29.77"29.74"29.74"29.74"29.71"29.71"29.68"29.65"29.65"29.62"29.62"29.59"29.59"29.59"29.59"29.62"
Wind Speed 1.9 mph1.5 mph2.6 mph4 mph5.1 mph7 mph8.8 mph9.4 mph9.4 mph8.5 mph8.3 mph7.2 mph6.1 mph5.7 mph5.4 mph6 mph5.1 mph5.8 mph5.3 mph5.8 mph6.2 mph7.6 mph7.1 mph7.5 mph8.2 mph10.9 mph12.7 mph13.8 mph14.2 mph14.8 mph15.7 mph15.2 mph15 mph13.8 mph12.2 mph11.6 mph9.5 mph8.4 mph7.9 mph7.7 mph9.1 mph9.2 mph8.8 mph6.3 mph4.7 mph4.1 mph4 mph7.6 mph
Wind
Direction
245°
WSW
235°
SW
180°
S
193°
SSW
194°
SSW
193°
SSW
195°
SSW
197°
SSW
205°
SSW
202°
SSW
197°
SSW
200°
SSW
203°
SSW
202°
SSW
203°
SSW
204°
SSW
215°
SW
214°
SW
214°
SW
211°
SSW
210°
SSW
205°
SSW
203°
SSW
199°
SSW
197°
SSW
202°
SSW
203°
SSW
204°
SSW
201°
SSW
200°
SSW
196°
SSW
205°
SSW
202°
SSW
209°
SSW
208°
SSW
218°
SW
219°
SW
218°
SW
217°
SW
215°
SW
214°
SW
216°
SW
227°
SW
236°
SW
265°
W
260°
W
285°
WNW
320°
NW

Daily Forecast

Date High Low Precip. Humidity
Today
Feb 21

Clouds
59 °F
31 °F
0%
52%
Thursday
Feb 22

Rain
58 °F
43 °F
100%
66%
Friday
Feb 23

Rain
60 °F
44 °F
100%
54%
Saturday
Feb 24

Rain
47 °F
32 °F
35%
66%
Sunday
Feb 25

Clouds
53 °F
29 °F
0%
39%
Monday
Feb 26

Rain
55 °F
45 °F
71%
89%
Tuesday
Feb 27

Rain
64 °F
55 °F
100%
96%
Wednesday
Feb 28

Rain
65 °F
57 °F
100%
95%
Thursday
Feb 29

Rain
56 °F
46 °F
100%
83%
Friday
Mar 1

Rain
58 °F
43 °F
65%
68%
Saturday
Mar 2

Clear
62 °F
42 °F
0%
47%
Sunday
Mar 3

Clear
65 °F
40 °F
0%
44%
Monday
Mar 4

Clouds
67 °F
46 °F
1%
62%
Tuesday
Mar 5

Clouds
69 °F
51 °F
6%
53%
Wednesday
Mar 6

Rain
68 °F
52 °F
69%
59%
Thursday
Mar 7

Rain
67 °F
51 °F
100%
37%

Temperature 8-14 Day Outlook



Precipitation 8-14 Day Outlook




Quick Links
Watts Bar Lake News
Watts Bar Lake Photos
Watts Bar Lake Videos




About Us
Contact Us
Site Map
Search Site
Advertise With Us
   
www.WattsBar.info
THE WATTS BAR LAKE WEBSITE

Copyright 2024, Lakes Online
Privacy    |    Legal